Location: Dzierzno
(50.6159°N, 19.2852°E)
Time: 21:27:42
(UTC+00:00)

ATLAS 2AS CENTAUR R/B - Pass Details

Date: 18 November 2025
Orbit: 1047 x 1164 km, 63.7° (Epoch: 05 December)

Event Time Altitude Azimuth Distance (km) Brightness Sun altitude
Rises 15:40:17 0° 305° (NW) 3,874 6.1 -7.6°
Reaches altitude 10° 15:43:19 10° 315° (NW) 2,902 5.3 -8.1°
Maximum altitude 15:49:19 31° 17° (NNE) 1,748 3.5 -9.0°
Enters shadow 15:54:48 12° 76° (ENE) 2,729 4.2 -9.8°
